Regional Weather Roundup
Issued by NWS

Home | Current Version | Previous Version | Text Only | Print | Product List | Glossary On
Versions: 1 2 3 4 5 6 7 8 9 10 11 12 13 14 15 16 17 18 19 20 21 22 23 24 25 26 27 28 29 30 31 32 33 34 35 36 37 38 39 40 41 42 43 44 45 46 47 48 49 50
000
ASUS43 KTOP 181359
RWRKS

WEATHER ROUNDUP FOR KANSAS
NATIONAL WEATHER SERVICE GOODLAND KS
900 AM CDT FRI AUG 18 2017

NOTE:  "FAIR" INDICATES FEW OR NO CLOUDS BELOW 12,000 FEET WITH NO
SIGNIFICANT WEATHER AND/OR OBSTRUCTIONS TO VISIBILITY.

KSZ001>006-013>018-027>032-041>047-181500-
NORTHWEST KANSAS

CITY           SKY/WX    TMP DP  RH WIND       PRES   REMARKS
GOODLAND       SUNNY     66  58  75 W14       30.08R
HAYS           MOSUNNY   69  61  75 S7        30.04R
HILL CITY      SUNNY     69  61  75 SW7       30.03S
RUSSELL        SUNNY     70  62  76 S6        30.01S
$$

KSZ061>065-074>080-084>089-181500-
SOUTHWEST KANSAS

CITY           SKY/WX    TMP DP  RH WIND       PRES   REMARKS
DODGE CITY     SUNNY     72  56  57 SW20      30.05R
ELKHART          N/A     64  60  87 S16         N/A
GARDEN CITY    SUNNY     66  59  78 SW13      30.08R
GREAT BEND     CLOUDY    68  64  87 S3        30.04F
LIBERAL        SUNNY     67  61  81 S15       30.10R
$$

KSZ066>073-081>083-090>101-181500-
SOUTHEAST KANSAS

CITY           SKY/WX    TMP DP  RH WIND       PRES   REMARKS
CHANUTE        CLOUDY    71  67  87 SW5       30.01R
COFFEYVILLE    CLOUDY    73  72  96 SE6       30.00R
HUTCHINSON     CLOUDY    68  65  90 NW6       30.03R
MEDICINE LODGE   N/A     70  62  76 NW6       30.01R
NEWTON         PTSUNNY   69  65  86 N7        30.03R
PARSONS        CLOUDY    72  68  87 CALM      30.02R
WICHITA INTL   CLOUDY    73  65  75 E3        30.00R
WICHITA JABRA  CLOUDY    72  65  78 CALM      30.00S
WINFIELD       CLOUDY    73  65  75 SE6       30.00S
$$

KSZ007>012-019>026-033>040-048>060-102>105-181500-
NORTHEAST KANSAS

CITY           SKY/WX    TMP DP  RH WIND       PRES   REMARKS
CONCORDIA      CLOUDY    73  63  70 SW6       29.97R
EMPORIA        CLOUDY    70  64  81 N3        30.00R
LAWRENCE       CLOUDY    69  66  90 S6        29.99R
MANHATTAN      CLOUDY    70  67  90 SW3       29.96F
OLATHE IND     CLOUDY    68  63  84 S7        29.99R
OLATHE EXE     PTSUNNY   68  64  87 S5        29.99R
SALINA         PTSUNNY   71  64  78 SW8       29.99F
TOPEKA BILLARD PTSUNNY   70  66  87 CALM      29.98F
TOPEKA FORBES  MOSUNNY   71  66  84 CALM      29.99R
$$




USA.gov is the U.S. government's official web portal to all federal, state and local government web resources and services.